Location: Christian Reformed Church
(43.0975°N, 93.8113°W)
Time: 02:36:28
(UTC+00:00)

YAOGAN 1 - Pass Details

Date: 13 December 2025
Orbit: 605 x 607 km, 97.8° (Epoch: 14 January)

Event Time Altitude Azimuth Distance (km) Brightness Sun altitude
Rises 23:46:59 0° 134° (SE) 2,854 5.7 -11.7°
Reaches altitude 10° 23:49:28 10° 121° (ESE) 1,955 4.8 -12.1°
Maximum altitude 23:52:52 24° 67° (ENE) 1,271 3.5 -12.7°
Drops below altitude 10° 23:56:18 10° 14° (NNE) 1,966 4.8 -13.3°
Sets 23:58:47 0° 0° (N) 2,875 5.8 -13.7°
